STARLINK-3243, 51116

Orbit data source: Space-Track

STARLINK-3243, 51116 is a payload satellite owned by SpaceX/Seattle (US) in LEO that was launched on Wed, 19 Jan 2022 UTC via an FALCON 9 launch vehicle from the Air Force Eastern Test Range (AFETR). Payload-class satellites include a variety of spacecraft equipped with specific instruments for various scientific and technological missions. These include communications satellites like Starlink; space stations such as the ISS; scientific satellites like the Hubble; Earth observation satellites from companies like Planet Labs, Umbra, and HawkEye 360; GPS; miniature CubeSats for education and research; and military/defense satellites.

Loading next visibility...
Identifier
51116, 2022-005N
Orbit
LEO
Country
Flag of USUS
Related business
Manufacturer
SpaceX/Seattle
Mission
Operational Commercial Communications
Bus & Motor
STARLINK, Unknown motor
Mass
297 kg wet, ~275 kg dry
Launch date (UTC)
2022-01-19 (4 years ago)
Launch vehicle
FALCON 9
Launch site
Air Force Eastern Test Range (AFETR)
Object type
Payload
Rocket body
Debris
Shape & HBR
Box + 1 Pan, 10.1 m
Radar Cross Section
13.562 m², Large (>1 m²)

Expand to show TLE details & history
Last TLE update: 12 hours ago

TLE from 12 hours ago
0 STARLINK-3243
1 51116U 22005N   26094.19506871 -.00000040  00000-0  15574-4 0  9992
2 51116  53.2181 174.5971 0001568  94.8579 265.2592 15.08837854232728
Epoch: 2026-04-04T04:40Z
TLE epoch observation values (Epoch: 2026-04-04T04:40:53.936Z)
Latitude
-0.00004°
Longitude
-88.146°
Altitude
540.737 km
Speed
7.593 km/s
True Right ascension
11h 38m 23s
True Declination
0° 00' 00"
Sunlit
Object was in full shadow at epoch
Visualization orbit readout
Latitude
Unknown
Longitude
Unknown
Altitude
Unknown
Speed
Unknown
Apparent Right ascension
Unknown
Apparent Declination
Unknown
Sunlit
N/A
Visualization observer readout
Local Sidereal Time
22:48:27
Azimuth
Unknown
Elevation
Unknown
Doppler factor
Unknown
Orbital elements
Apogee altitude
541.08 km
Perigee altitude
538.91 km
Semi-major axis
6,918.132 km
Eccentricity
0.00016
Inclination
53.2181°
RAAN
174.5971°
Arg. of periapsis
94.8579°
True anomaly
265.24129°
Mean anomaly
265.2592°
Eccentric anomaly
265.25025°
Mean motion
3.7719 °/min
Orbital period
95.44 mins
BSTAR
0.000015574
Loading maneuver chart data...
Computing Atmospheric mass density...
Loading historical data...
Loading historical data...
Loading historical data...
Loading historical data...
Loading historical data...
Loading historical data...
Loading historical data...

Documentation

Showing up to 5 results
|